SCP
1 1 1 1 1 1 1 1 1 1 1 1 1 1 1 1 1 1 1 1 1 1 1 1 1 1 1 1 0 0 0 1 1 1 1 1 0 0 0 0 0 0 0
1 1 1 1 1 1 1 1 1 1 1 1 1 1 1 1 1 1 1 1 1 1 1 1 1 1 1 1 1 1 1 1 1 1 1 0 0 0 0 0 0 0 0
1 1 1 1 1 1 1 1 1 1 1 1 1 1 1 1 1 1 1 1 1 1 1 1 1 1 1 1 1 1 1 1 1 1 0 0 0 0 0 0 0 0 0
2 2 2 2 2 2 1 1 1 1 1 1 1 1 1 1 1 1 1 1 1 1 1 1 1 1 1 1 1 1 1 1 1 0 0 0 0 0 0 0 0 0 0
2 2 2 2 2 2 2 2 2 1 1 1 1 1 1 1 1 1 1 1 1 1 1 1 1 1 1 1 1 1 1 0 0 0 0 0 0 0 0 0 0 0 0
1 2 2 2 2 2 2 2 2 1 1 1 1 1 1 1 1 1 1 1 1 1 1 1 1 1 1 1 1 0 0 0 0 0 0 0 0 0 0 0 0 0 0
1 2 2 2 2 2 2 2 2 2 1 1 1 1 1 1 1 1 1 1 1 1 1 1 1 1 1 1 0 0 0 0 0 0 0 0 0 0 0 0 0 0 0
2 2 2 2 2 2 2 2 2 2 1 1 1 1 2 2 1 1 1 1 1 2 1 1 1 1 1 1 0 0 0 0 0 0 0 0 0 0 0 0 0 0 0
2 2 2 2 2 2 2 2 2 2 2 1 1 1 1 1 1 1 1 1 1 2 2 1 1 1 1 1 1 0 0 0 0 0 0 0 0 1 1 0 0 0 0
2 2 2 2 2 2 2 2 1 2 2 2 2 2 1 1 1 1 1 1 1 2 2 1 1 1 1 1 0 0 0 0 0 0 0 0 0 0 1 0 0 0 0
2 2 2 2 2 2 2 1 1 1 2 2 2 2 1 1 1 1 1 1 1 2 2 1 1 1 1 0 0 0 0 0 0 0 0 0 0 0 0 0 0 1 1
2 2 2 2 1 1 1 1 1 1 1 2 2 2 1 1 1 1 1 1 1 1 1 1 1 1 0 0 0 0 0 0 0 0 0 0 0 0 0 1 1 1 1
2 2 2 1 1 1 1 1 1 1 1 1 2 1 1 1 1 1 1 1 1 1 1 1 1 0 0 0 0 0 0 0 0 0 0 0 0 0 1 1 1 1 1
2 2 2 1 1 1 1 1 1 1 1 1 1 1 1 1 1 1 1 1 1 1 1 1 1 0 0 0 0 0 0 0 0 0 0 0 0 0 1 1 1 1 1
2 2 2 2 1 1 1 1 1 1 1 1 1 1 1 1 1 1 2 2 2 1 1 1 1 0 0 0 0 0 0 0 0 0 0 0 0 0 0 0 0 0 0
2 2 2 2 1 1 1 1 1 1 1 1 1 1 1 1 1 1 2 2 2 1 1 1 1 0 0 0 0 0 0 0 0 0 0 0 0 0 0 0 0 0 0
1 1 1 1 1 1 1 1 1 1 1 1 1 0 1 1 1 1 1 1 1 1 1 1 1 0 0 0 0 0 0 0 0 0 0 0 0 0 0 0 0 0 0
1 1 1 1 1 1 1 1 1 1 1 1 0 0 0 1 1 1 1 1 1 1 1 1 0 0 0 0 0 0 0 0 0 0 0 0 0 0 0 0 0 0 0
1 1 1 1 1 1 1 1 1 0 0 0 0 0 0 0 0 0 0 0 1 1 1 1 0 0 0 0 0 0 0 0 0 0 0 0 0 0 0 0 0 0 0
0 0 0 0 0 1 1 0 0 0 0 0 0 0 0 0 0 0 0 0 1 1 1 0 0 0 0 0 0 0 0 0 0 0 0 0 0 0 0 0 0 0 0
0 0 0 0 0 0 0 0 0 0 0 0 0 0 0 0 0 0 0 1 1 1 1 0 0 0 0 0 0 0 0 0 0 0 0 0 0 0 0 0 0 0 0
0 0 0 0 0 0 0 0 0 0 0 0 0 0 0 0 0 0 0 1 1 1 1 0 0 0 0 0 0 0 0 0 0 0 0 0 0 0 0 0 0 0 0
0 0 0 0 0 0 0 0 0 0 0 0 0 0 0 0 0 0 0 1 1 1 1 0 0 0 0 0 0 0 0 0 0 0 0 0 0 0 0 0 0 0 0
0 0 0 0 0 0 0 0 0 0 0 0 0 0 0 0 0 0 0 0 1 1 1 0 0 0 0 0 0 0 0 0 0 0 0 0 0 0 0 0 0 0 0
0 0 0 0 0 0 0 0 0 0 0 0 0 0 0 0 0 0 0 0 1 1 1 0 0 0 0 0 0 0 0 0 0 0 0 0 0 0 0 0 0 0 0
0 0 0 0 0 0 0 0 0 0 0 0 0 0 0 0 0 0 0 0 1 1 0 0 0 0 0 0 0 0 0 0 0 0 0 0 0 0 0 0 0 0 0
Wind_Speed
6 7 13 13 13 13 13 12 12 11 11 11 12 12 12 12 12 12 12 12 11 11 12 12 13 13 13 14 14 14 14 14 14 14 13 12 13 13 13 13 11 8 14
9 9 14 13 13 13 13 12 12 11 11 11 11 12 12 12 12 12 11 11 11 11 12 12 12 13 13 13 13 13 13 13 13 13 11 10 11 12 13 12 12 9 13
11 9 12 13 13 12 12 12 12 11 11 11 11 11 11 11 11 11 11 11 11 11 12 12 12 12 12 12 12 12 12 11 11 11 10 5 7 12 12 12 12 13 13
11 9 10 13 13 13 12 12 12 12 11 11 11 10 11 11 11 11 11 11 11 11 12 12 11 11 11 11 11 11 11 10 10 9 5 4 4 10 12 12 12 12 12
9 8 10 13 13 13 12 12 12 12 11 11 10 10 10 11 11 11 11 11 11 11 11 11 11 11 10 10 10 10 10 10 9 7 4 3 4 10 11 11 11 12 11
9 7 9 13 13 13 12 12 11 12 11 11 10 10 10 10 11 11 11 11 11 11 11 11 11 10 10 9 9 9 10 10 7 4 4 3 3 9 10 11 11 11 11
8 7 9 13 13 12 12 12 11 11 11 10 10 10 10 10 11 11 10 10 11 11 11 10 10 10 9 9 9 9 9 9 6 4 3 3 4 9 10 10 11 11 10
9 7 8 12 12 12 12 11 11 11 10 10 9 9 9 10 10 10 11 10 10 10 10 10 9 9 9 8 9 9 8 7 6 5 3 2 6 9 10 10 10 10 10
8 7 6 7 9 11 11 10 10 10 9 9 9 8 8 8 9 10 10 9 9 9 9 9 8 8 8 8 8 9 8 8 4 3 3 2 6 9 9 9 9 9 9
7 6 6 5 6 5 6 9 9 9 8 8 8 8 8 7 8 8 8 8 9 9 8 8 7 7 7 7 8 8 8 6 3 3 2 3 7 9 9 9 9 9 9
7 6 6 6 6 5 5 7 7 7 7 7 6 8 7 4 4 5 6 7 8 8 8 7 7 7 6 6 7 7 6 3 3 2 2 5 7 8 8 8 8 8 8
8 7 6 6 6 6 5 4 3 3 4 4 4 5 3 3 3 4 6 7 7 7 6 7 6 6 5 3 4 5 2 3 2 2 2 6 7 7 7 8 8 8 7
8 7 6 7 6 6 4 4 2 2 2 3 4 5 4 3 3 3 2 3 3 4 2 3 3 2 2 2 2 2 3 2 1 1 2 5 6 6 7 7 7 7 7
7 7 7 7 6 5 5 4 4 3 3 3 4 5 4 3 3 3 2 2 2 2 2 2 2 2 3 3 3 3 3 2 1 1 2 4 5 5 6 6 7 7 7
7 7 7 7 7 6 5 4 4 4 4 4 3 4 5 4 4 3 3 3 3 2 2 2 2 2 2 2 3 3 3 3 2 2 1 4 4 4 5 6 6 6 6
7 7 7 7 7 7 5 4 4 4 4 4 4 5 6 4 4 4 4 3 3 3 3 3 3 3 2 2 3 3 3 3 3 2 2 2 3 4 5 5 5 5 5
8 7 7 8 7 7 6 5 4 4 4 4 4 5 5 5 5 5 4 3 3 3 3 3 3 3 2 2 3 2 2 2 2 2 2 2 2 3 3 4 4 4 4
7 7 7 7 7 7 6 5 4 4 4 4 4 4 5 6 6 5 4 3 3 3 3 3 3 3 3 2 2 2 2 2 2 2 2 2 2 2 2 2 3 3 3
8 8 7 6 7 7 6 5 4 4 4 4 4 4 5 6 6 5 4 4 4 3 3 4 3 3 3 3 3 2 2 2 2 3 2 2 2 2 2 2 3 3 3
7 7 7 7 6 6 5 4 3 3 3 3 3 4 5 5 6 5 4 4 5 4 3 3 4 3 3 3 4 3 2 2 2 2 2 2 2 2 2 2 2 2 3
6 6 7 7 6 6 4 4 4 4 3 3 3 4 5 5 6 5 4 5 5 4 5 5 4 4 2 3 4 3 2 2 2 1 1 1 1 1 2 2 1 1 1
7 7 7 8 8 7 5 4 3 4 3 3 3 3 5 6 6 5 6 5 5 5 5 5 5 3 2 2 3 3 1 1 1 1 0 1 1 1 1 1 1 1 0
6 7 7 7 7 7 5 4 3 3 2 2 3 3 4 5 6 5 6 6 5 5 6 6 6 6 4 1 2 4 4 3 1 1 1 1 1 1 1 1 1 1 1
6 6 6 7 7 7 7 6 7 5 4 4 4 3 4 4 5 6 6 6 6 5 6 6 5 4 6 4 1 1 2 3 3 1 2 1 1 2 2 2 2 2 1
5 5 5 5 6 7 7 8 7 4 4 2 2 4 4 3 4 5 6 6 6 5 6 6 5 5 4 5 4 2 2 1 2 3 2 2 1 2 2 3 2 2 2
3 4 4 5 6 7 7 7 7 7 5 5 4 4 4 3 3 4 5 5 6 5 6 6 6 7 5 5 4 3 4 3 3 3 3 2 2 2 2 2 3 2 2
Wind_Direction
161 165 151 146 142 139 135 131 127 124 122 121 121 119 117 116 115 114 111 109 107 106 103 99 97 97 96 95 93 91 90 88 87 82 78 80 86 87 85 80 76 72 79
153 158 150 146 143 141 138 133 130 127 127 125 125 124 123 122 120 118 114 112 110 109 106 102 101 100 98 97 96 93 92 90 88 84 76 74 81 86 87 84 84 81 82
146 152 150 146 143 140 138 135 132 130 129 128 127 127 126 126 124 122 119 116 113 109 107 104 102 102 101 99 97 97 96 95 90 86 79 71 84 90 89 87 86 85 85
143 147 149 148 145 142 139 137 135 134 131 129 128 127 128 127 126 123 120 116 112 108 105 105 105 104 103 102 101 100 99 96 90 83 72 68 83 92 89 89 89 88 87
139 144 151 149 148 146 143 142 140 137 134 132 130 128 128 129 126 120 117 114 110 106 105 106 107 106 105 103 101 101 99 97 87 75 65 70 78 94 91 89 92 90 89
139 143 151 149 150 148 147 146 144 142 140 138 135 132 130 130 128 121 116 112 110 107 107 108 110 108 106 103 100 96 96 94 85 74 73 77 84 99 97 93 93 93 92
139 144 150 151 150 149 149 148 145 146 146 144 141 137 133 130 127 124 119 115 113 111 111 111 112 112 108 103 100 96 92 93 88 81 79 86 100 104 101 99 95 92 91
142 144 150 153 152 150 151 151 149 148 149 147 144 142 139 133 128 129 124 120 118 117 116 114 113 111 108 104 102 97 89 92 92 89 78 90 111 106 105 103 98 94 91
139 140 143 150 153 153 151 150 150 150 148 148 146 142 137 131 130 130 129 128 126 122 120 116 114 110 106 103 99 92 88 87 85 91 89 90 110 106 105 106 102 97 95
138 141 145 144 144 146 150 150 152 152 149 148 145 139 133 130 130 130 129 132 130 126 122 118 114 107 99 96 95 93 89 84 81 82 79 101 105 102 101 104 104 101 100
147 149 148 147 145 145 149 156 152 150 148 142 140 135 130 124 125 128 130 130 129 127 126 122 116 105 94 89 88 87 84 80 81 82 91 102 109 105 102 104 104 103 101
164 164 159 154 153 152 156 144 145 148 146 140 137 134 127 124 129 129 130 131 129 127 128 125 116 106 91 82 81 79 77 83 74 77 100 107 113 108 105 106 103 99 98
170 167 167 163 160 156 148 148 145 141 144 146 147 142 133 123 120 118 120 126 124 120 116 114 102 94 96 98 88 84 84 78 67 66 97 105 113 117 116 111 105 100 97
169 173 171 165 160 161 154 155 156 153 156 155 158 150 142 137 135 141 139 135 127 121 120 108 103 101 102 106 105 97 92 84 76 63 95 104 112 123 127 123 117 110 103
173 177 176 167 164 164 158 163 162 164 168 164 161 159 153 150 153 153 151 148 146 138 138 131 123 120 114 109 104 104 104 98 89 72 67 97 106 118 126 129 128 122 116
180 181 177 172 168 163 164 166 167 169 167 163 166 165 159 156 156 157 155 157 157 155 152 146 138 128 118 110 104 109 115 110 95 89 72 75 95 107 119 129 129 126 123
182 176 177 177 169 166 166 169 167 171 165 166 169 164 161 157 157 157 158 161 166 155 145 132 123 115 111 104 102 108 111 102 95 92 87 67 65 87 113 130 135 129 124
175 173 179 178 170 170 168 167 163 164 165 166 164 163 163 160 158 153 154 160 158 147 145 140 133 124 117 113 105 100 100 100 94 91 85 77 63 53 78 103 121 127 128
175 171 174 172 171 172 166 161 159 159 161 162 161 163 166 162 159 153 155 154 149 142 147 150 139 139 132 119 103 85 82 98 104 101 92 88 79 70 64 73 79 87 97
173 169 170 168 170 163 154 143 142 150 157 157 163 166 164 163 159 152 152 154 148 141 140 139 139 134 133 130 103 78 59 71 94 106 115 99 88 91 84 75 72 72 77
168 167 170 167 168 160 157 158 160 169 167 167 173 170 167 163 161 156 155 156 157 156 157 148 133 129 122 128 104 76 29 29 65 83 100 109 101 109 104 96 86 71 52
174 175 173 174 169 170 171 167 159 154 161 171 173 177 177 169 167 166 162 166 164 153 153 154 140 134 140 149 132 123 101 349 345 13 126 141 141 118 129 134 125 131 106
178 180 181 181 172 169 160 139 121 101 97 142 178 187 190 176 171 169 169 167 167 163 167 169 162 150 159 185 153 146 155 197 246 311 286 215 197 183 190 183 180 190 181
190 183 177 177 173 168 160 160 163 170 176 188 184 187 190 180 175 172 172 171 171 169 170 175 171 159 157 169 184 151 147 151 155 202 308 292 244 226 215 208 202 204 204
179 175 174 171 173 170 168 170 170 174 179 164 161 177 187 185 179 173 173 173 174 176 177 177 171 169 168 172 173 157 132 111 134 154 217 262 270 246 226 214 209 211 213
162 162 165 167 180 176 172 172 175 176 171 164 173 181 187 188 184 180 177 177 178 179 181 182 179 179 182 181 180 173 166 169 178 168 184 216 239 261 247 224 216 220 220